Regional Weather Roundup
Issued by NWS Sioux Falls, SD

Home | Current Version | Previous Version | Text Only | Print | Product List | Glossary Off
Versions: 1 2 3 4 5 6 7 8 9 10 11 12 13 14 15 16 17 18 19 20 21 22 23 24 25 26 27 28 29 30 31 32 33 34 35 36 37 38 39 40 41 42 43 44 45 46 47 48 49 50

000
ASUS43 KFSD 261102
RWRFSD

WEATHER ROUNDUP FOR SE SOUTH DAKOTA/SW MINNESOTA/NW IOWA
NATIONAL WEATHER SERVICE SIOUX FALLS SD
600 AM CDT TUE JUL 26 2016

NOTE: "FAIR" INDICATES FEW OR NO CLOUDS BELOW 12,000 FEET WITH NO
SIGNIFICANT WEATHER AND OR OBSTRUCTIONS TO VISIBILITY.


SDZ038>040-050-052>070-261200-
SOUTHEAST SOUTH DAKOTA

CITY           SKY/WX    TMP DP  RH WIND       PRES   REMARKS
BROOKINGS      CLEAR     66  62  87 S7        30.05S
CHAMBERLAIN    CLEAR     73  64  73 S9        30.00S
HURON          CLEAR     65  61  87 SE9       30.00R
MADISON        FAIR      64  64 100 S8        30.06S
MITCHELL       CLEAR     64  61  90 SE6       30.02F
SIOUX FALLS    PTCLDY    70  62  76 SW8       30.06S
WINNER         FAIR      73  60  63 S17G25    30.01F
YANKTON        CLEAR     64  61  88 E3        30.04F
$$

MNZ071-072-080-081-089-090-097-098-261200-
SOUTHWEST MINNESOTA

CITY           SKY/WX    TMP DP  RH WIND       PRES   REMARKS
FAIRMONT       CLEAR     63  45  51 S5        30.06S
JACKSON        CLEAR     68  61  77 SW7       30.08F
LUVERNE        CLEAR     59  55  88 S3        30.08S FOG
MARSHALL       CLEAR     73  64  73 SW16      30.01S
MONTEVIDEO     CLEAR     66  63  88 SW8       30.02S
REDWOOD FALLS  CLEAR     67  62  84 S7        30.03S
TRACY          CLEAR     71  65  81 SW17      30.04S
WINDOM         CLEAR     68  63  83 SW6       30.07S
WORTHINGTON    CLEAR     69  64  84 MISG      30.08F
$$

IAZ001>003-012>014-020>022-031-032-NEZ013-014-SDZ071-261200-
NORTHWEST IOWA

CITY           SKY/WX    TMP DP  RH WIND       PRES   REMARKS
CHEROKEE       CLEAR     61  61 100 CALM      30.09S
DENISON        CLEAR     59  59 100 CALM      30.08S
ESTHERVILLE    CLEAR     64  62  93 SW6       30.08S
LE MARS        CLEAR     63  61  94 CALM      30.09S
SHELDON        CLEAR     63  63 100 S6        30.07F
SIOUX CITY     CLEAR     63  61  93 SE5       30.07F
SPENCER        CLEAR     62  60  93 CALM      30.09S
STORM LAKE     CLEAR     64  61  88 SW6       30.10F
$$

ABBREVIATIONS USED IN REMARKS
   TC - TEMPERATURE IN CELSIUS
  WCI - WIND CHILL INDEX
   HX - HEAT INDEX
  VSB - VISIBILITY





USA.gov is the U.S. government's official web portal to all federal, state and local government web resources and services.